LRCV Weather Reports


Display with metric or nautical units.
time (UTC)temp
F
wind
direction
speed
MPH
gust
MPH
rain 1hr
in
rain 24hr
in
rain mn
in
humidity
%
barometer
mb
20260506103341 73 150 7.0 0.0 0.00 0.00 0.00 57 1014.0
20260506101842 73 150 6.0 0.0 0.00 0.00 0.00 50 1015.0
20260506100341 73 150 6.0 0.0 0.00 0.00 0.00 50 1015.0
20260506094841 72 110 6.0 0.0 0.00 0.00 0.00 57 1015.0
20260506093341 72 110 6.0 0.0 0.00 0.00 0.00 57 1015.0
20260506091841 70 130 6.0 0.0 0.00 0.00 0.00 57 1015.0
20260506090341 70 130 6.0 0.0 0.00 0.00 0.00 57 1015.0
20260506084841 68 130 5.0 0.0 0.00 0.00 0.00 60 1015.0
20260506083341 68 130 5.0 0.0 0.00 0.00 0.00 60 1015.0
20260506081838 66 150 6.0 0.0 0.00 0.00 0.00 60 1015.0
20260506080341 66 150 6.0 0.0 0.00 0.00 0.00 60 1015.0
20260506073341 64 140 5.0 0.0 0.00 0.00 0.00 64 1015.0
20260506071841 64 130 6.0 0.0 0.00 0.00 0.00 68 1015.0
20260506070341 64 130 6.0 0.0 0.00 0.00 0.00 68 1015.0
20260506061841 59 100 8.0 0.0 0.00 0.00 0.00 77 1015.0
20260506060343 59 100 8.0 0.0 0.00 0.00 0.00 77 1015.0
20260506050355 55 80 7.0 0.0 0.00 0.00 0.00 82 1014.0
20260506044857 54 80 5.0 0.0 0.00 0.00 0.00 88 1014.0
20260506043345 54 80 5.0 0.0 0.00 0.00 0.00 88 1014.0
20260506041842 50 90 7.0 0.0 0.00 0.00 0.00 88 1014.0
20260506040341 50 90 7.0 0.0 0.00 0.00 0.00 88 1014.0
20260506034842 48 80 7.0 0.0 0.00 0.00 0.00 94 1014.0
20260506033341 48 80 7.0 0.0 0.00 0.00 0.00 94 1014.0
20260506031841 46 70 7.0 0.0 0.00 0.00 0.00 93 1014.0
20260506030341 46 70 7.0 0.0 0.00 0.00 0.00 93 1014.0
20260506024841 48 60 5.0 0.0 0.00 0.00 0.00 94 1014.0
20260506023341 48 60 5.0 0.0 0.00 0.00 0.00 94 1014.0
20260506021841 50 40 6.0 0.0 0.00 0.00 0.00 88 1014.0
20260506020341 50 40 6.0 0.0 0.00 0.00 0.00 88 1014.0
20260506014841 50 30 7.0 0.0 0.00 0.00 0.00 88 1014.0
20260506013341 50 30 7.0 0.0 0.00 0.00 0.00 88 1014.0
20260506011842 50 20 5.0 0.0 0.00 0.00 0.00 94 1014.0
20260506010341 50 20 5.0 0.0 0.00 0.00 0.00 94 1014.0
20260506004841 50 60 6.0 0.0 0.00 0.00 0.00 94 1013.0
20260506003502 50 60 6.0 0.0 0.00 0.00 0.00 94 1013.0
20260506001842 52 40 6.0 0.0 0.00 0.00 0.00 88 1013.0
20260506000342 52 40 6.0 0.0 0.00 0.00 0.00 88 1013.0
20260505234841 52 70 6.0 0.0 0.00 0.00 0.00 88 1013.0
20260505233341 52 70 6.0 0.0 0.00 0.00 0.00 88 1013.0
20260505231841 52 70 7.0 0.0 0.00 0.00 0.00 88 1014.0
20260505230342 52 70 7.0 0.0 0.00 0.00 0.00 88 1014.0
20260505224842 54 70 6.0 0.0 0.00 0.00 0.00 82 1014.0
20260505223341 54 70 6.0 0.0 0.00 0.00 0.00 82 1014.0
20260505221839 54 110 6.0 0.0 0.00 0.00 0.00 82 1014.0
20260505220341 54 110 6.0 0.0 0.00 0.00 0.00 82 1014.0
20260505214842 54 90 5.0 0.0 0.00 0.00 0.00 82 1014.0
20260505213341 54 90 5.0 0.0 0.00 0.00 0.00 82 1014.0
20260505211841 59 300 3.0 0.0 0.00 0.00 0.00 63 1014.0
20260505210341 59 300 3.0 0.0 0.00 0.00 0.00 63 1014.0
20260505204843 61 160 5.0 0.0 0.00 0.00 0.00 59 1013.0
20260505203341 61 160 5.0 0.0 0.00 0.00 0.00 59 1013.0
20260505201912 61 160 6.0 0.0 0.00 0.00 0.00 59 1013.0
20260505200342 61 160 6.0 0.0 0.00 0.00 0.00 59 1013.0
20260505194841 63 180 6.0 0.0 0.00 0.00 0.00 56 1013.0
20260505193341 63 180 6.0 0.0 0.00 0.00 0.00 56 1013.0
20260505191841 64 180 5.0 0.0 0.00 0.00 0.00 52 1013.0
20260505190341 64 180 5.0 0.0 0.00 0.00 0.00 52 1013.0
20260505184842 66 180 3.0 0.0 0.00 0.00 0.00 49 1013.0
20260505183342 66 180 3.0 0.0 0.00 0.00 0.00 49 1013.0
20260505181842 70 210 5.0 0.0 0.00 0.00 0.00 40 1013.0
20260505180341 70 210 5.0 0.0 0.00 0.00 0.00 40 1013.0
20260505174839 72 230 5.0 0.0 0.00 0.00 0.00 36 1013.0
20260505173341 72 230 5.0 0.0 0.00 0.00 0.00 36 1013.0
20260505171841 73 230 6.0 0.0 0.00 0.00 0.00 33 1013.0
20260505170341 73 230 6.0 0.0 0.00 0.00 0.00 33 1013.0
20260505164841 75 230 8.0 0.0 0.00 0.00 0.00 31 1013.0
20260505163341 75 230 8.0 0.0 0.00 0.00 0.00 31 1013.0
20260505161842 77 230 8.0 0.0 0.00 0.00 0.00 28 1013.0
20260505160342 77 230 8.0 0.0 0.00 0.00 0.00 28 1013.0
20260505153341 77 240 9.0 0.0 0.00 0.00 0.00 30 1013.0
20260505151850 79 220 9.0 0.0 0.00 0.00 0.00 26 1013.0
20260505150342 79 220 9.0 0.0 0.00 0.00 0.00 26 1013.0
20260505140341 79 280 9.0 0.0 0.00 0.00 0.00 28 1013.0
20260505124841 77 5.0 0.0 0.00 0.00 0.00 32 1014.0
20260505123341 77 5.0 0.0 0.00 0.00 0.00 32 1014.0
20260505121841 79 220 7.0 0.0 0.00 0.00 0.00 28 1014.0
20260505120351 79 270 7.0 0.0 0.00 0.00 0.00 32 1015.0
20260505114849 79 270 7.0 0.0 0.00 0.00 0.00 32 1015.0
20260505113412 79 270 7.0 0.0 0.00 0.00 0.00 32 1015.0
20260505111841 77 290 7.0 0.0 0.00 0.00 0.00 36 1015.0
20260505110342 77 290 7.0 0.0 0.00 0.00 0.00 36 1015.0